Precipitable_Water
0.32 0.32 0.33 0.33 0.34 0.25 0.32 0.32 0.28 0.33 0.40 0.33 0.33 0.28 0.30 0.29 0.26 0.22 0.36 0.32 0.32 0.35 0.31 0.31 0.38 0.40 0.42 0.48 0.54 0.57 0.65 0.74 0.80 0.90 1.04 1.10 1.10 1.12 1.10 1.08 1.12 1.19 1.24 1.23 1.16 1.09 1.05 1.06 1.09 1.11 1.10 1.04 1.02 1.03 1.02 1.02 1.01 0.99 0.95 0.92 0.87 0.83 0.82
0.32 0.35 0.34 0.36 0.35 0.37 0.34 0.28 0.32 0.39 0.39 0.39 0.32 0.27 0.36 0.28 0.23 0.28 0.35 0.29 0.27 0.28 0.25 0.42 0.42 0.32 0.37 0.42 0.45 0.54 0.62 0.71 0.74 0.81 0.96 1.08 1.14 1.13 1.14 1.13 1.13 1.17 1.19 1.18 1.14 1.08 1.05 1.07 1.12 1.14 1.13 1.11 1.09 1.10 1.05 1.04 1.02 0.96 0.99 0.94 0.89 0.86 0.84
0.32 0.34 0.33 0.32 0.36 0.39 0.34 0.32 0.41 0.30 0.28 0.26 0.33 0.31 0.24 0.26 0.24 0.25 0.30 0.30 0.24 0.27 0.26 0.36 0.39 0.37 0.37 0.42 0.46 0.48 0.54 0.64 0.71 0.80 0.92 1.09 1.19 1.18 1.12 1.07 1.08 1.13 1.13 1.12 1.10 1.03 1.04 1.10 1.16 1.19 1.18 1.15 1.13 1.12 1.08 1.08 1.05 1.01 1.02 0.96 0.91 0.87 0.81
0.32 0.32 0.30 0.26 0.30 0.36 0.39 0.40 0.36 0.38 0.36 0.33 0.36 0.32 0.31 0.28 0.20 0.21 0.22 0.28 0.22 0.34 0.30 0.34 0.29 0.30 0.31 0.36 0.47 0.42 0.50 0.58 0.69 0.79 0.89 1.00 1.09 1.10 1.07 1.07 1.09 1.09 1.08 1.08 1.07 1.03 1.02 1.10 1.17 1.22 1.20 1.18 1.14 1.14 1.10 1.08 1.07 1.03 0.98 0.91 0.88 0.83 0.86
0.30 0.26 0.29 0.27 0.31 0.30 0.31 0.32 0.33 0.35 0.34 0.39 0.35 0.39 0.29 0.28 0.25 0.23 0.22 0.20 0.24 0.34 0.41 0.33 0.30 0.30 0.32 0.36 0.42 0.47 0.50 0.57 0.68 0.80 0.88 0.97 1.04 1.05 1.06 1.06 1.06 1.04 1.03 1.05 1.09 1.08 1.10 1.19 1.24 1.22 1.20 1.16 1.13 1.16 1.12 1.08 1.02 0.97 0.94 0.91 0.88 0.87 0.82
0.24 0.26 0.32 0.34 0.38 0.35 0.34 0.33 0.33 0.34 0.33 0.30 0.27 0.29 0.37 0.33 0.28 0.23 0.23 0.21 0.25 0.35 0.38 0.33 0.31 0.34 0.38 0.39 0.42 0.49 0.55 0.58 0.66 0.75 0.85 0.94 1.00 1.03 1.07 1.07 1.04 1.03 1.05 1.06 1.10 1.13 1.15 1.21 1.20 1.17 1.17 1.17 1.11 1.10 1.13 1.11 1.05 1.02 0.98 0.98 0.92 0.86 0.81
0.28 0.31 0.36 0.38 0.41 0.40 0.38 0.36 0.34 0.38 0.37 0.35 0.31 0.25 0.34 0.34 0.32 0.31 0.28 0.23 0.23 0.41 0.38 0.36 0.39 0.44 0.42 0.49 0.48 0.52 0.59 0.64 0.70 0.76 0.84 0.91 0.96 0.99 1.02 1.05 1.09 1.08 1.08 1.09 1.12 1.14 1.16 1.20 1.20 1.19 1.18 1.14 1.12 1.11 1.09 1.09 1.01 0.94 0.90 0.94 0.97 0.91 0.82
0.35 0.35 0.38 0.37 0.37 0.39 0.36 0.36 0.37 0.35 0.33 0.35 0.35 0.35 0.39 0.35 0.37 0.30 0.29 0.24 0.26 0.42 0.47 0.44 0.43 0.45 0.45 0.48 0.52 0.56 0.64 0.68 0.72 0.77 0.82 0.87 0.92 0.97 1.00 1.08 1.13 1.14 1.13 1.16 1.19 1.18 1.20 1.18 1.20 1.20 1.18 1.13 1.13 1.12 1.11 1.09 1.03 0.96 0.92 0.93 0.94 0.94 0.84
0.28 0.31 0.31 0.32 0.37 0.36 0.33 0.33 0.36 0.36 0.37 0.37 0.38 0.40 0.41 0.32 0.33 0.34 0.29 0.23 0.29 0.46 0.49 0.44 0.45 0.43 0.44 0.48 0.52 0.57 0.64 0.72 0.75 0.79 0.81 0.86 0.92 0.98 1.01 1.04 1.09 1.13 1.13 1.13 1.14 1.14 1.14 1.17 1.22 1.24 1.22 1.15 1.12 1.11 1.09 1.06 1.03 1.03 1.02 1.00 0.95 0.88 0.82
0.18 0.19 0.18 0.22 0.27 0.28 0.32 0.34 0.35 0.38 0.37 0.37 0.35 0.32 0.36 0.29 0.33 0.35 0.30 0.27 0.32 0.48 0.51 0.46 0.47 0.46 0.47 0.50 0.54 0.59 0.62 0.71 0.79 0.85 0.88 0.91 0.93 0.93 0.97 1.01 1.03 1.05 1.09 1.12 1.11 1.13 1.16 1.19 1.23 1.26 1.22 1.16 1.13 1.11 1.09 1.06 1.01 0.98 1.00 1.02 0.99 0.90 0.82
0.22 0.24 0.26 0.31 0.33 0.33 0.28 0.31 0.34 0.36 0.37 0.38 0.38 0.37 0.36 0.33 0.43 0.35 0.34 0.31 0.31 0.35 0.44 0.47 0.48 0.48 0.44 0.44 0.52 0.55 0.58 0.63 0.74 0.85 0.89 0.93 0.96 0.98 0.98 1.01 1.05 1.10 1.13 1.12 1.14 1.17 1.18 1.21 1.26 1.27 1.18 1.13 1.10 1.11 1.10 1.06 1.03 1.02 1.03 1.02 0.97 0.85 0.78
0.27 0.34 0.45 0.39 0.35 0.33 0.35 0.34 0.35 0.36 0.36 0.37 0.37 0.35 0.36 0.46 0.39 0.32 0.38 0.39 0.34 0.33 0.38 0.44 0.46 0.48 0.47 0.49 0.51 0.55 0.67 0.64 0.66 0.75 0.84 0.89 0.94 1.00 1.05 1.06 1.07 1.08 1.13 1.18 1.21 1.21 1.21 1.23 1.26 1.24 1.18 1.12 1.09 1.08 1.05 1.05 1.05 1.03 1.02 1.02 0.97 0.85 0.78
0.35 0.34 0.35 0.36 0.35 0.36 0.38 0.38 0.38 0.35 0.35 0.37 0.35 0.37 0.40 0.46 0.36 0.32 0.42 0.46 0.42 0.39 0.40 0.45 0.48 0.49 0.45 0.44 0.46 0.53 0.61 0.69 0.69 0.69 0.74 0.79 0.85 0.91 0.95 1.00 1.06 1.10 1.13 1.20 1.25 1.26 1.26 1.25 1.21 1.17 1.11 1.09 1.09 1.07 1.05 1.05 1.04 1.04 1.04 1.01 0.92 0.83 0.81
0.35 0.34 0.33 0.34 0.32 0.34 0.34 0.36 0.38 0.37 0.36 0.37 0.38 0.39 0.42 0.46 0.43 0.43 0.43 0.51 0.43 0.42 0.42 0.46 0.45 0.46 0.44 0.45 0.47 0.46 0.47 0.50 0.59 0.64 0.65 0.71 0.80 0.84 0.88 0.95 1.04 1.11 1.17 1.23 1.28 1.29 1.26 1.21 1.19 1.13 1.06 1.03 1.01 0.99 0.99 1.03 1.03 1.03 1.04 0.99 0.88 0.82 0.80
0.34 0.35 0.35 0.35 0.35 0.35 0.33 0.36 0.39 0.39 0.39 0.39 0.40 0.40 0.43 0.47 0.44 0.44 0.44 0.44 0.41 0.45 0.47 0.51 0.49 0.44 0.44 0.41 0.37 0.37 0.40 0.45 0.52 0.58 0.60 0.64 0.69 0.79 0.89 0.95 1.00 1.09 1.18 1.26 1.30 1.27 1.23 1.20 1.16 1.09 1.02 0.97 0.97 0.98 1.03 1.06 1.06 1.05 1.01 0.96 0.88 0.81 0.81
0.35 0.36 0.35 0.36 0.36 0.36 0.36 0.37 0.38 0.38 0.38 0.36 0.40 0.40 0.46 0.43 0.42 0.45 0.45 0.41 0.40 0.46 0.50 0.56 0.52 0.46 0.40 0.34 0.33 0.35 0.41 0.46 0.48 0.52 0.59 0.65 0.71 0.75 0.83 0.92 1.00 1.06 1.13 1.22 1.24 1.22 1.21 1.19 1.12 1.05 0.98 0.97 0.98 0.99 1.03 1.03 1.04 1.07 1.02 0.96 0.86 0.81 0.83
0.34 0.40 0.40 0.37 0.35 0.35 0.34 0.35 0.37 0.39 0.40 0.41 0.44 0.45 0.48 0.47 0.47 0.42 0.39 0.40 0.47 0.49 0.50 0.42 0.39 0.38 0.38 0.42 0.47 0.44 0.44 0.47 0.50 0.54 0.59 0.66 0.72 0.75 0.80 0.88 0.99 1.06 1.11 1.19 1.23 1.23 1.22 1.17 1.07 1.00 0.99 0.98 1.00 1.02 1.04 1.02 0.99 0.99 1.00 0.93 0.84 0.81 0.85
0.40 0.41 0.40 0.40 0.35 0.28 0.29 0.50 0.47 0.46 0.42 0.42 0.41 0.43 0.48 0.51 0.47 0.42 0.43 0.44 0.45 0.42 0.40 0.39 0.40 0.38 0.40 0.45 0.51 0.53 0.43 0.44 0.54 0.58 0.60 0.67 0.75 0.80 0.82 0.88 0.97 1.09 1.18 1.23 1.26 1.24 1.20 1.14 1.03 0.99 0.99 1.01 1.05 1.05 1.01 0.99 0.96 0.97 0.91 0.85 0.82 0.83 0.86
0.39 0.46 0.42 0.34 0.28 0.30 0.57 0.54 0.55 0.53 0.49 0.48 0.46 0.47 0.49 0.49 0.50 0.47 0.45 0.46 0.47 0.45 0.44 0.43 0.42 0.43 0.45 0.48 0.47 0.47 0.53 0.53 0.53 0.56 0.62 0.67 0.72 0.79 0.85 0.91 0.98 1.10 1.20 1.24 1.24 1.23 1.14 1.02 0.99 1.00 1.03 1.08 1.07 1.01 0.96 0.93 0.95 0.94 0.87 0.81 0.82 0.83 0.83
0.46 0.40 0.36 0.27 0.29 0.52 0.53 0.53 0.52 0.53 0.50 0.50 0.47 0.43 0.46 0.48 0.49 0.50 0.47 0.47 0.45 0.42 0.42 0.43 0.50 0.43 0.47 0.48 0.52 0.54 0.59 0.60 0.59 0.58 0.61 0.68 0.74 0.79 0.86 0.93 1.02 1.12 1.21 1.22 1.22 1.15 1.08 1.01 0.99 1.01 1.05 1.05 0.98 0.93 0.93 0.90 0.91 0.86 0.82 0.79 0.79 0.81 0.80
0.33 0.34 0.33 0.31 0.49 0.47 0.49 0.45 0.46 0.44 0.41 0.42 0.40 0.36 0.43 0.52 0.55 0.52 0.50 0.46 0.43 0.42 0.42 0.47 0.46 0.48 0.48 0.39 0.42 0.56 0.56 0.58 0.59 0.63 0.67 0.72 0.77 0.84 0.91 1.00 1.10 1.22 1.27 1.26 1.21 1.12 1.04 0.99 1.05 1.08 1.05 0.98 0.89 0.87 0.88 0.87 0.83 0.81 0.78 0.75 0.76 0.77 0.79
0.39 0.33 0.31 0.33 0.33 0.31 0.39 0.53 0.54 0.53 0.53 0.52 0.50 0.44 0.39 0.46 0.46 0.48 0.45 0.41 0.41 0.40 0.43 0.46 0.48 0.50 0.41 0.31 0.62 0.61 0.62 0.64 0.64 0.69 0.74 0.77 0.82 0.88 0.96 1.06 1.18 1.21 1.22 1.20 1.15 0.99 0.96 1.04 1.05 0.96 0.92 0.89 0.88 0.84 0.81 0.81 0.80 0.80 0.76 0.75 0.77 0.77 0.82
0.38 0.32 0.28 0.27 0.26 0.31 0.41 0.48 0.61 0.61 0.59 0.51 0.52 0.38 0.32 0.42 0.46 0.50 0.43 0.41 0.43 0.43 0.44 0.48 0.46 0.40 0.34 0.38 0.51 0.59 0.63 0.62 0.62 0.67 0.71 0.78 0.86 0.91 0.97 1.02 1.04 1.09 1.13 1.12 1.03 1.00 1.04 0.98 0.94 0.91 0.88 0.86 0.85 0.80 0.75 0.75 0.76 0.76 0.75 0.77 0.79 0.79 0.84
0.37 0.35 0.30 0.26 0.28 0.29 0.45 0.57 0.55 0.57 0.56 0.53 0.43 0.29 0.29 0.46 0.50 0.49 0.48 0.44 0.43 0.46 0.49 0.49 0.43 0.37 0.35 0.41 0.60 0.64 0.68 0.68 0.67 0.68 0.72 0.73 0.80 0.88 0.98 1.06 1.09 1.07 1.12 1.08 0.98 0.98 0.97 0.93 0.89 0.88 0.88 0.83 0.80 0.76 0.77 0.78 0.73 0.73 0.78 0.84 0.85 0.86 0.89
0.34 0.34 0.28 0.30 0.33 0.47 0.54 0.55 0.53 0.52 0.53 0.45 0.32 0.26 0.34 0.49 0.52 0.51 0.49 0.48 0.48 0.50 0.53 0.49 0.39 0.49 0.55 0.54 0.59 0.67 0.65 0.60 0.67 0.75 0.81 0.84 0.87 0.91 0.92 0.98 1.05 1.06 1.07 1.00 0.97 0.96 0.89 0.86 0.88 0.91 0.90 0.85 0.83 0.83 0.84 0.84 0.80 0.82 0.89 0.94 0.91 0.90 0.95
0.31 0.34 0.33 0.29 0.32 0.51 0.56 0.54 0.52 0.53 0.44 0.31 0.29 0.55 0.55 0.51 0.52 0.59 0.55 0.52 0.51 0.53 0.53 0.50 0.46 0.57 0.64 0.62 0.65 0.66 0.67 0.70 0.76 0.78 0.81 0.85 0.89 0.96 0.99 1.00 1.04 1.04 0.99 0.96 0.90 0.87 0.88 0.86 0.90 0.95 0.94 0.89 0.87 0.89 0.89 0.90 0.89 0.91 0.96 0.94 0.94 1.01 1.09
0.33 0.34 0.34 0.33 0.28 0.60 0.57 0.58 0.54 0.53 0.38 0.41 0.60 0.61 0.70 0.58 0.59 0.56 0.55 0.52 0.51 0.56 0.54 0.54 0.62 0.64 0.62 0.64 0.69 0.71 0.74 0.75 0.76 0.79 0.84 0.86 0.88 0.90 0.92 0.94 0.99 0.98 0.95 0.92 0.89 0.88 0.91 0.93 0.99 0.97 0.93 0.88 0.88 0.90 0.90 0.95 0.94 0.95 0.99 1.06 1.10 1.08 1.04
0.36 0.35 0.32 0.34 0.55 0.54 0.61 0.59 0.49 0.57 0.53 0.71 0.66 0.61 0.54 0.60 0.56 0.56 0.53 0.56 0.58 0.63 0.59 0.61 0.64 0.68 0.70 0.73 0.76 0.78 0.79 0.80 0.83 0.86 0.89 0.93 0.95 0.96 0.96 0.98 1.00 0.97 0.97 0.95 0.94 0.92 0.94 1.06 1.04 1.02 0.96 0.92 0.91 0.90 0.90 1.01 1.03 1.04 1.10 1.14 1.07 1.02 1.03
0.42 0.40 0.46 0.66 0.63 0.64 0.62 0.61 0.61 0.59 0.62 0.61 0.62 0.60 0.58 0.55 0.55 0.60 0.57 0.56 0.60 0.65 0.67 0.71 0.70 0.71 0.74 0.78 0.83 0.81 0.83 0.84 0.85 0.87 0.90 0.93 0.95 0.95 0.95 0.94 1.01 0.99 0.96 0.97 0.97 0.99 1.01 1.02 1.01 0.95 0.93 0.88 0.89 0.88 0.95 1.06 1.09 1.08 1.10 1.04 0.99 1.03 1.02
0.54 0.56 0.61 0.61 0.61 0.61 0.65 0.63 0.67 0.63 0.63 0.67 0.67 0.66 0.62 0.63 0.62 0.62 0.58 0.61 0.63 0.67 0.71 0.72 0.73 0.75 0.83 0.83 0.87 0.88 0.89 0.90 0.93 0.95 0.96 0.98 0.99 1.01 1.00 0.99 0.99 1.01 1.01 0.98 0.98 0.99 1.01 1.01 0.99 0.99 0.99 0.96 0.91 0.92 1.01 1.09 1.09 1.08 1.04 1.00 1.00 0.99 0.97
0.43 0.42 0.56 0.56 0.54 0.58 0.61 0.62 0.65 0.68 0.68 0.69 0.71 0.71 0.70 0.68 0.67 0.67 0.69 0.68 0.70 0.74 0.76 0.77 0.77 0.82 0.86 0.87 0.89 0.92 0.93 0.93 0.94 0.94 0.95 0.96 0.96 0.96 0.94 0.97 0.97 0.95 0.95 0.93 0.93 0.95 0.96 1.01 0.99 0.99 0.99 0.99 0.98 1.05 1.13 1.14 1.05 1.04 1.04 1.02 1.00 0.98 0.97
0.40 0.45 0.54 0.55 0.57 0.61 0.63 0.63 0.61 0.60 0.63 0.66 0.68 0.68 0.71 0.71 0.73 0.74 0.76 0.78 0.77 0.81 0.79 0.83 0.84 0.86 0.88 0.87 0.88 0.90 0.92 0.94 0.96 0.97 0.96 0.95 0.95 0.98 0.99 0.96 0.94 0.94 0.92 0.91 0.92 0.93 0.97 1.05 1.03 1.00 0.97 0.97 0.99 1.01 1.09 1.07 1.09 1.05 1.00 0.95 0.95 0.93 0.98
0.54 0.54 0.55 0.54 0.54 0.59 0.62 0.60 0.61 0.58 0.57 0.59 0.63 0.66 0.69 0.73 0.73 0.75 0.80 0.83 0.86 0.85 0.86 0.89 0.91 0.88 0.93 0.91 0.89 0.89 0.92 0.92 0.92 0.93 0.94 0.96 0.96 0.95 0.94 0.94 0.96 0.98 0.97 0.95 0.94 0.90 0.92 0.94 0.95 0.92 0.92 0.92 0.98 1.03 1.01 1.03 1.08 0.99 0.96 0.93 0.92 0.99 1.05
0.44 0.48 0.55 0.55 0.46 0.49 0.59 0.58 0.56 0.55 0.57 0.61 0.63 0.66 0.70 0.74 0.76 0.81 0.82 0.85 0.89 0.89 0.94 0.95 0.94 0.92 0.95 0.97 0.94 0.94 0.96 0.95 0.95 0.94 0.95 0.95 0.94 0.94 0.96 0.96 0.94 0.91 0.89 0.89 0.87 0.85 0.85 0.84 0.84 0.86 0.87 0.88 0.90 0.96 1.03 1.10 1.07 1.02 0.98 0.96 0.96 1.00 1.05
0.49 0.58 0.63 0.63 0.58 0.56 0.57 0.57 0.57 0.58 0.64 0.65 0.65 0.69 0.70 0.76 0.81 0.87 0.89 0.85 0.84 0.87 0.91 0.95 0.91 0.91 0.93 0.95 0.94 0.92 0.97 0.94 0.92 0.91 0.88 0.85 0.85 0.85 0.87 0.85 0.84 0.85 0.85 0.83 0.83 0.79 0.80 0.79 0.80 0.80 0.82 0.85 0.89 0.95 1.02 1.06 1.06 1.03 0.98 0.97 0.91 0.92 0.99
0.55 0.57 0.56 0.57 0.56 0.51 0.53 0.55 0.56 0.57 0.66 0.66 0.64 0.67 0.72 0.77 0.81 0.89 0.92 0.90 0.83 0.87 0.87 0.92 0.96 0.93 0.91 0.91 0.92 0.94 0.91 0.85 0.85 0.85 0.86 0.87 0.87 0.85 0.84 0.82 0.82 0.82 0.82 0.81 0.81 0.81 0.82 0.82 0.81 0.82 0.82 0.87 0.89 0.93 1.01 1.04 1.06 1.04 0.99 0.93 0.90 0.90 0.92
0.50 0.55 0.56 0.55 0.54 0.55 0.57 0.59 0.61 0.64 0.71 0.62 0.59 0.64 0.69 0.74 0.80 0.86 0.90 0.98 0.89 0.88 0.87 0.87 0.89 0.88 0.88 0.88 0.90 0.88 0.86 0.86 0.88 0.87 0.86 0.85 0.83 0.80 0.82 0.84 0.83 0.83 0.83 0.83 0.83 0.83 0.83 0.82 0.82 0.83 0.82 0.86 0.94 0.94 1.00 1.02 1.03 1.01 0.98 0.91 0.91 0.90 0.90
Wind_Speed
16 16 13 13 11 9 10 10 11 9 7 8 8 7 7 8 10 9 9 11 12 12 12 11 11 11 12 13 14 16 17 18 19 20 21 22 22 21 20 19 18 18 18 17 17 16 15 14 14 13 12 12 13 14 14 15 16 17 18 19 20 20 20
14 14 14 14 12 9 9 11 11 8 7 8 8 8 7 8 10 8 8 11 11 9 9 8 9 11 12 12 14 15 16 17 19 20 21 22 22 21 20 19 19 19 18 18 18 17 16 15 15 14 13 13 14 14 15 15 16 17 18 20 21 21 21
14 15 15 14 13 12 11 10 10 9 9 9 9 9 8 8 9 8 8 9 10 10 9 8 9 10 11 11 12 14 15 16 17 19 20 21 21 21 20 20 20 19 19 19 19 18 17 16 16 15 14 14 14 15 16 16 17 18 19 20 21 22 22
16 16 17 16 15 14 13 11 11 11 10 9 8 9 9 8 9 9 7 7 9 9 8 7 9 10 10 11 11 12 14 15 16 17 19 20 20 20 20 20 20 20 20 20 20 19 18 17 16 16 15 15 15 16 16 17 18 18 20 21 22 22 22
17 17 18 17 15 16 15 14 13 12 11 10 10 10 9 9 9 8 8 8 8 6 6 8 10 10 10 11 11 11 13 14 15 16 17 19 20 20 20 20 20 20 20 21 20 20 19 17 17 17 16 16 16 16 17 18 18 19 20 21 22 23 23
18 18 17 16 15 15 16 15 14 14 13 11 11 11 9 9 9 8 8 9 9 7 7 8 9 9 10 10 11 11 11 13 14 14 15 17 19 20 20 20 20 20 20 21 21 20 19 18 18 18 17 16 17 17 18 18 19 20 21 21 22 23 24
16 15 14 14 14 15 15 15 15 15 14 14 13 11 9 9 9 9 9 10 9 7 7 7 8 9 10 10 11 11 11 11 12 13 14 15 17 19 20 20 20 20 20 21 21 21 20 19 18 18 17 17 18 18 19 19 20 21 21 22 22 23 24
15 14 14 15 16 16 17 17 17 16 15 15 14 11 9 9 9 9 9 10 9 7 7 8 9 10 11 11 12 12 12 11 12 13 14 14 15 17 19 19 20 20 20 21 21 21 20 19 19 18 18 19 19 19 20 20 21 21 22 22 23 24 24
17 17 16 17 17 18 19 18 19 19 17 15 14 11 11 12 12 11 11 11 8 7 9 11 11 10 11 12 12 12 13 13 12 13 14 14 15 16 18 18 18 19 20 21 21 21 20 20 20 20 20 20 20 20 21 21 21 22 22 23 24 24 25
19 19 19 19 18 18 19 19 19 20 20 18 16 14 13 14 13 13 13 13 10 8 9 11 11 11 12 13 13 14 14 14 14 14 14 15 15 16 17 18 18 18 19 20 21 21 21 21 21 20 21 21 21 21 22 22 22 22 23 23 24 25 25
21 19 19 19 19 19 20 21 20 20 21 20 18 16 15 14 12 14 15 15 15 13 12 12 12 13 14 15 16 16 15 15 16 15 16 16 16 16 17 18 18 18 19 21 21 21 21 21 21 21 21 21 21 22 22 22 22 23 23 24 25 25 25
22 19 17 18 20 21 21 21 21 21 21 21 20 19 17 14 14 15 14 14 17 17 16 16 15 15 16 17 17 18 17 17 17 17 17 17 18 18 18 19 19 20 21 21 21 22 21 21 21 21 21 21 21 22 22 23 23 23 24 25 25 25 25
22 20 19 19 20 21 21 22 22 22 22 22 22 21 18 16 17 17 13 13 17 18 17 18 18 18 19 19 19 19 19 19 19 19 19 19 20 20 20 20 21 21 21 21 21 21 21 21 21 21 21 21 21 22 23 23 23 24 24 25 25 25 25
21 20 21 21 21 21 22 22 22 22 22 22 22 21 19 18 19 19 17 17 19 20 20 20 20 20 21 20 20 20 21 21 20 20 20 21 21 21 22 22 22 22 22 22 22 21 21 21 21 21 21 21 21 22 23 23 24 24 25 25 25 25 25
20 20 20 21 21 21 21 21 21 21 21 21 21 20 19 18 19 19 20 21 21 21 20 19 19 21 21 21 21 22 21 21 21 21 22 22 22 22 22 22 22 22 23 23 22 21 21 21 21 21 21 21 22 22 23 23 24 24 24 25 26 26 25
19 19 20 20 20 21 21 21 21 21 21 20 20 19 18 19 20 19 20 21 20 19 18 19 21 22 22 23 23 22 21 20 21 22 22 22 22 22 22 22 23 23 23 23 22 22 22 21 21 21 21 21 22 22 23 23 24 24 24 25 26 26 25
18 18 19 18 19 20 21 21 21 21 21 20 20 19 19 20 20 20 20 20 19 19 20 21 22 22 22 23 22 21 21 20 21 21 21 21 21 22 22 22 23 24 24 23 22 22 22 21 21 21 21 21 22 22 23 23 24 24 24 25 26 26 26
17 17 17 18 19 21 19 18 19 21 21 21 21 20 20 19 20 20 20 20 20 21 22 22 22 22 22 22 21 21 20 20 19 20 20 20 21 21 22 22 23 24 23 22 22 22 21 21 20 20 21 21 22 22 23 23 24 25 25 26 26 26 26
18 16 18 20 21 20 17 16 16 18 19 21 21 21 20 20 20 21 22 22 22 22 22 22 22 21 21 21 21 20 19 18 18 18 19 19 20 20 21 21 22 22 22 21 21 21 21 20 20 20 21 22 22 23 23 23 24 25 26 26 26 25 25
19 19 21 21 18 16 16 16 16 16 17 19 21 21 20 20 21 21 22 22 22 22 22 21 20 20 19 20 20 18 18 18 17 18 18 18 19 19 20 20 21 21 21 21 21 20 20 20 20 20 21 22 23 23 23 24 25 25 26 26 25 25 25
21 22 23 21 18 17 17 18 18 18 19 19 20 21 20 19 20 20 21 21 21 21 21 19 18 18 18 19 17 16 16 16 16 16 16 16 17 18 18 19 19 19 20 21 20 19 19 19 20 21 22 23 23 23 24 25 25 25 26 25 25 24 25
22 24 23 22 22 22 21 21 20 20 20 19 19 20 20 20 21 21 20 20 20 19 19 17 16 16 17 17 15 14 14 14 14 14 14 14 15 16 17 17 17 18 20 20 19 19 19 19 20 22 23 23 23 23 24 25 25 25 25 25 24 24 25
23 24 24 22 23 22 20 19 18 18 18 17 17 20 21 19 19 19 19 19 19 18 18 16 15 16 17 16 14 13 13 13 13 13 13 13 13 14 15 16 16 18 19 19 18 18 19 20 21 22 23 23 23 24 24 24 24 24 25 24 24 24 25
24 24 25 24 23 20 17 16 17 17 17 16 18 21 19 15 15 17 17 18 18 18 18 16 16 17 17 15 14 14 13 13 13 13 13 12 12 12 13 14 15 16 17 17 17 18 19 21 22 22 23 24 24 25 24 24 24 25 25 24 24 25 26
26 25 25 24 22 19 16 17 18 18 18 19 21 22 19 16 16 17 17 18 19 19 18 17 18 18 16 15 15 15 14 14 14 13 13 13 12 12 13 14 15 16 16 16 17 19 20 22 22 23 24 24 25 25 25 25 25 25 25 25 26 26 26
25 25 24 24 23 19 17 18 19 19 20 21 21 20 19 18 18 18 19 20 21 20 20 20 20 18 16 15 16 15 15 15 14 14 13 13 13 13 14 14 14 15 16 17 19 21 22 22 23 23 23 24 25 25 25 26 26 26 26 27 27 27 26
24 23 23 23 22 19 19 19 19 21 22 21 19 18 19 19 19 20 21 22 22 22 22 21 21 19 17 16 16 16 16 15 15 14 14 13 14 14 14 15 15 16 17 19 21 22 22 22 23 23 23 24 25 25 26 28 27 27 27 28 28 27 27
21 22 21 20 19 18 19 20 20 20 21 20 20 21 22 22 22 23 24 24 24 23 23 22 21 20 18 17 16 16 16 16 15 14 14 14 15 15 16 17 17 18 19 20 21 22 22 22 23 23 24 25 25 26 28 28 28 28 28 27 27 27 28
20 20 18 18 18 18 19 20 20 20 22 22 23 24 25 25 26 25 25 25 24 24 23 22 21 20 19 18 17 17 16 16 15 15 15 16 16 16 17 17 18 20 20 21 21 22 23 23 23 24 25 26 27 28 28 28 28 28 27 27 27 28 28
20 20 19 19 20 20 20 20 21 22 23 23 24 25 26 27 27 26 26 26 25 24 23 22 21 21 20 19 18 17 17 16 16 16 16 17 17 17 17 18 19 20 21 21 22 23 24 24 25 26 26 27 28 29 29 28 28 27 27 27 27 27 27
22 22 21 21 22 22 21 22 22 23 24 25 25 26 27 27 27 26 26 25 24 23 23 22 21 21 20 19 18 18 18 17 17 17 17 17 17 17 18 18 19 20 21 22 23 24 25 25 26 27 28 29 29 29 29 28 27 27 26 26 26 26 26
22 22 21 22 24 23 22 22 22 23 24 25 26 26 27 27 27 26 25 25 23 22 22 22 21 20 20 19 19 18 18 17 17 17 17 17 17 17 18 18 19 20 21 22 23 24 25 26 27 27 28 28 28 28 28 27 26 25 25 25 25 25 25
22 22 22 23 24 24 23 22 23 24 25 26 26 27 26 26 26 25 24 23 22 21 21 20 20 20 19 19 19 18 18 17 17 17 17 17 18 18 18 19 20 20 21 22 23 24 25 26 27 28 28 28 27 27 26 25 25 24 24 24 24 25 25
22 22 22 22 23 23 23 23 24 25 26 26 26 26 26 25 24 23 22 21 21 20 20 20 19 19 18 19 19 19 18 18 18 18 18 19 19 19 19 20 20 21 22 23 24 25 26 27 27 27 27 27 27 26 25 25 25 24 24 24 25 26 26
22 21 21 21 23 24 25 25 25 26 25 24 24 24 25 25 24 23 22 21 20 19 19 20 20 19 19 19 20 20 19 19 19 19 20 21 20 20 21 21 22 22 24 25 26 26 26 27 27 27 27 27 27 26 25 25 25 24 24 25 25 26 26
25 24 24 24 25 26 27 27 27 27 25 25 24 24 24 25 24 23 23 23 21 20 20 20 20 20 20 20 20 20 20 20 20 21 22 22 22 22 23 23 23 24 26 26 26 27 27 27 27 27 26 26 26 25 25 25 25 25 25 25 25 25 26
27 27 27 27 27 27 28 28 27 26 25 25 25 24 24 25 24 24 24 24 23 22 22 21 21 21 21 21 21 21 21 21 22 22 22 22 23 24 25 25 25 26 27 27 27 27 27 26 26 26 26 26 26 25 25 25 25 25 25 25 25 25 25
Wind_Direction
210 213 211 208 215 216 213 222 226 231 242 237 241 253 253 261 267 257 247 255 258 262 264 254 252 259 258 253 249 247 247 242 239 238 235 233 233 233 233 234 233 233 235 238 239 240 243 247 252 257 266 276 284 292 298 304 311 318 323 325 326 325 323
212 215 209 208 222 226 223 227 223 221 238 242 244 252 250 252 263 261 251 258 260 257 257 246 244 258 262 257 252 248 247 245 242 240 236 234 233 232 232 234 234 234 236 238 240 241 244 247 252 257 265 274 282 289 296 302 308 315 320 323 325 325 323
210 213 213 214 221 228 235 234 220 221 235 234 231 246 261 262 269 270 255 257 262 254 249 247 248 261 267 261 254 249 247 246 245 241 237 234 233 231 232 234 235 236 236 237 240 242 244 247 252 258 264 272 280 287 294 300 306 313 317 321 323 323 322
210 213 217 219 219 222 231 234 225 228 240 240 232 244 265 270 274 277 262 258 264 251 243 256 260 266 270 262 255 252 249 247 246 243 238 235 233 232 232 234 235 236 235 237 240 242 243 247 252 258 264 270 278 285 292 298 304 310 315 318 321 321 320
214 216 218 222 223 219 222 228 227 226 233 244 248 250 259 267 274 277 268 268 274 258 249 266 268 266 269 264 259 257 255 251 248 244 240 237 234 233 233 234 235 235 235 237 239 242 244 247 251 257 263 270 277 284 290 296 301 307 312 315 318 319 319
219 220 218 224 229 224 222 227 229 228 230 238 250 251 249 255 266 272 272 274 276 266 261 271 273 271 270 265 263 262 258 255 250 245 241 238 236 235 235 236 236 235 235 237 239 242 244 247 250 256 263 270 276 281 288 294 300 305 309 312 316 317 317
221 220 219 225 231 230 230 232 233 233 233 236 248 255 246 246 257 266 269 272 272 264 262 275 282 284 281 273 271 269 263 258 254 247 242 238 237 237 236 238 238 237 236 237 240 242 243 247 250 256 263 269 274 279 286 293 298 303 308 310 312 315 315
221 221 223 225 229 231 233 234 235 237 237 239 248 255 251 250 256 260 263 267 271 266 269 283 290 289 283 274 272 272 269 265 257 251 247 243 240 238 237 239 240 239 237 237 239 241 243 247 250 255 262 268 273 279 285 291 296 301 305 307 310 312 313
222 224 225 224 226 230 233 235 235 237 239 241 247 251 253 256 257 258 265 271 273 270 276 285 288 284 276 269 269 272 270 268 263 257 253 249 246 242 239 239 239 238 238 238 239 241 244 247 250 255 262 267 272 277 283 290 296 300 303 305 308 310 311
224 225 227 225 225 228 233 236 234 234 236 238 243 248 250 254 253 252 259 268 275 274 275 280 281 280 277 272 271 271 268 268 269 265 259 253 250 247 242 240 240 240 240 241 240 242 245 247 250 255 261 266 271 277 282 288 294 298 301 303 306 309 310
230 232 232 228 228 230 231 233 232 233 235 236 241 246 249 250 252 253 255 262 272 275 276 281 281 280 281 278 275 272 267 265 266 266 263 257 253 250 246 245 244 243 243 243 241 242 244 247 250 256 262 266 271 276 281 286 292 296 299 302 305 307 308
234 237 235 229 231 234 234 234 234 234 234 235 238 243 247 248 254 261 260 258 266 273 279 284 284 283 285 283 279 276 271 265 263 264 262 258 255 252 248 246 245 244 244 243 242 242 245 248 251 257 263 267 271 276 280 285 290 294 298 301 303 305 306
233 236 236 234 236 238 239 239 237 234 233 234 237 242 246 249 256 265 266 261 265 273 281 285 286 286 286 284 281 279 275 269 265 261 259 256 255 252 249 247 246 245 245 244 243 243 245 248 252 258 264 268 272 276 280 285 289 293 297 299 301 303 305
232 234 235 236 237 239 241 241 238 234 233 234 237 243 247 250 257 265 268 267 271 277 282 284 285 286 285 284 282 279 274 270 265 260 257 255 253 251 250 248 247 247 246 244 243 244 246 249 253 258 263 268 272 275 280 284 288 293 296 298 300 302 303
232 233 234 235 236 237 238 237 235 233 233 234 239 245 249 252 259 265 268 271 275 279 280 281 283 284 283 281 279 276 273 270 266 261 257 254 252 251 250 248 247 247 246 245 244 245 247 250 254 258 264 268 271 275 280 284 289 293 295 296 299 301 302
232 232 232 232 233 235 234 232 231 231 234 238 242 247 250 254 260 265 268 272 276 278 279 281 284 286 283 279 276 275 274 272 268 265 261 256 253 251 250 248 247 246 245 245 245 245 247 250 254 259 264 268 271 275 280 286 290 293 294 295 298 300 301
231 227 228 229 229 234 236 233 232 234 238 242 246 249 252 256 260 264 268 271 276 281 283 283 285 287 285 281 278 275 274 272 269 267 263 259 256 253 251 247 244 244 245 244 243 244 247 250 254 259 263 267 271 276 281 287 291 292 293 295 298 299 300
230 222 224 229 232 237 242 240 237 238 241 245 249 252 254 255 258 264 270 274 278 282 283 282 284 287 287 285 279 275 273 271 269 267 265 262 259 256 252 247 243 243 244 243 242 244 247 250 255 259 264 268 272 277 283 288 290 291 293 295 297 297 299
233 225 226 235 240 242 244 243 241 242 245 249 252 255 255 256 259 264 270 274 277 280 282 282 284 286 287 285 280 274 271 268 268 268 265 264 261 257 254 250 245 243 242 241 242 243 246 250 255 261 266 270 274 279 283 287 289 290 293 294 295 296 298
233 231 233 239 245 245 240 240 242 246 249 250 252 257 257 258 261 265 270 275 277 280 281 282 283 284 284 283 279 273 271 269 268 267 266 263 261 258 256 252 247 242 239 239 240 243 247 252 256 262 267 271 275 279 284 286 288 290 292 293 294 296 297
236 238 239 242 246 245 242 243 245 247 250 250 254 260 261 259 262 268 273 276 277 278 280 281 282 282 282 282 277 272 271 271 268 266 265 264 262 260 257 252 246 240 237 238 240 243 248 253 258 264 269 272 275 280 284 286 288 289 291 292 294 295 297
239 242 243 244 247 249 250 249 247 247 250 252 255 262 264 262 263 268 272 274 274 276 277 279 279 279 280 280 275 270 271 272 268 265 264 265 264 261 256 249 244 240 238 238 240 243 248 255 262 268 271 272 276 281 284 286 287 288 290 292 294 296 297
239 242 244 245 249 253 252 246 242 244 249 251 256 263 265 264 262 264 268 270 272 275 276 277 276 276 278 279 274 270 271 272 269 265 265 266 265 261 256 250 244 241 240 240 242 246 252 260 266 270 272 273 277 281 283 285 287 288 289 291 294 296 297
239 242 246 248 251 253 249 242 240 243 247 253 259 262 265 265 263 264 267 270 274 275 274 275 274 273 276 277 273 269 271 272 269 265 264 266 265 260 256 252 248 246 245 245 247 252 259 264 268 272 274 275 278 281 283 285 287 288 289 291 294 295 296
240 241 246 248 249 248 246 243 242 242 247 255 260 262 266 268 266 267 269 273 277 275 271 271 273 273 273 273 269 267 269 270 268 265 264 265 264 260 256 254 252 251 250 251 254 260 265 268 271 274 276 276 278 281 283 284 286 287 289 291 293 294 296
240 241 244 247 247 247 248 247 245 246 252 258 262 266 269 267 266 268 271 275 278 275 268 268 271 271 269 268 266 266 267 267 264 263 263 263 262 261 259 258 257 255 255 257 261 265 268 270 273 277 278 278 279 282 283 283 284 287 289 290 292 294 295
240 241 243 245 247 247 248 248 249 250 254 259 263 266 267 266 269 273 275 276 277 273 268 266 267 266 265 265 265 264 264 263 261 260 260 260 260 261 261 259 258 258 261 264 266 268 270 273 276 278 280 282 282 283 284 284 284 287 289 290 291 293 295
240 242 243 244 245 248 250 250 252 254 258 262 264 266 268 271 274 276 277 276 274 272 269 266 262 262 263 263 262 261 262 261 259 258 259 260 261 263 264 263 261 262 266 269 270 272 275 278 278 279 283 285 285 284 285 285 285 287 289 289 291 293 294
241 244 244 243 244 249 251 252 255 260 264 267 269 269 271 273 274 274 275 274 272 270 267 264 260 259 260 260 258 258 258 258 257 257 258 261 263 265 267 267 266 266 270 273 275 276 279 281 281 282 284 286 286 285 286 285 285 286 288 289 290 291 292
243 244 245 246 249 252 254 256 260 265 268 271 273 273 273 273 273 273 272 272 271 268 265 261 258 256 257 257 257 257 257 256 257 257 258 261 264 266 268 270 271 272 274 276 278 279 281 282 283 284 285 287 287 287 286 285 285 286 287 288 289 289 291
247 247 248 251 255 257 258 260 264 268 271 274 275 275 274 274 274 272 271 270 270 267 263 258 255 253 253 254 256 256 257 257 258 258 260 263 266 268 270 272 274 276 277 279 280 282 283 284 285 286 287 288 289 289 287 286 286 286 287 288 288 288 290
250 250 251 258 259 255 255 261 266 271 276 278 278 277 275 274 273 272 271 269 267 264 260 255 252 252 252 252 254 255 257 257 259 261 263 265 268 271 273 275 276 278 279 281 283 286 287 288 288 288 289 290 291 290 289 287 287 287 287 287 288 290 291
251 250 254 261 259 251 253 264 271 275 278 280 279 278 276 274 272 271 269 267 265 262 258 253 252 253 253 252 252 253 254 256 258 262 265 268 271 273 275 276 278 280 282 284 287 288 289 289 290 290 290 291 292 291 289 288 287 287 287 288 290 291 291
251 252 256 259 257 254 258 267 273 276 278 279 279 278 276 274 272 270 267 264 262 260 258 255 253 253 253 252 252 252 253 256 260 263 267 270 272 273 275 278 281 283 285 287 288 288 289 290 290 290 290 291 291 290 289 287 287 287 288 290 291 291 289
252 255 258 259 258 260 263 268 272 274 275 277 277 277 275 273 271 269 265 260 258 258 257 256 254 252 251 252 253 254 256 259 263 267 270 272 272 273 275 279 282 284 285 287 288 289 289 289 289 289 289 289 289 289 288 287 287 287 289 290 290 289 288
254 257 260 262 262 263 265 269 271 270 270 273 276 276 274 273 271 268 263 259 256 255 256 256 255 253 251 252 254 256 258 260 265 269 272 273 273 274 277 279 280 282 285 287 288 289 289 289 289 288 288 288 288 288 287 287 287 288 288 289 289 288 287
258 260 262 263 263 264 265 267 267 266 268 272 275 275 274 273 270 267 264 260 257 255 255 255 254 254 254 255 256 257 260 263 266 269 271 273 274 276 277 279 280 282 285 286 288 289 289 289 288 288 288 288 288 287 287 287 287 288 288 288 288 287 287